Japanese version Home page |
Updated on May 8, 2006 |
Profile
|
Orbital ElementsEpoch 2003 Oct. 8.0 TT = JDT 2452920.5 T 2003 Sept. 19.3060 TT MPCM q 5.726801 (2000.0) P Q z -0.000203 Peri. 74.8326 -0.1349578 -0.7577446 +/-0.000001 Node 314.1101 -0.7957412 +0.4668200 e 1.001165 Incl. 117.2282 +0.5904086 +0.4559628 From 376 observations 2001 Aug. 6-2004 Apr. 13, mean residual 0".6.
|
Finding Charts
|
Magnitudes Graphm1 = 5.5 + 5 log d + 10.0 log r
|
The orbital elements are published at the MPC Ephemerides and Orbital Elements.
|